Location: Unspecified
(10.5000°N, 0.0000°E)
Time: 13:14:47
(UTC+00:00)

ISS - Visible Passes

Search period start: 24 June 2019 00:00
Search period end: 04 July 2019 00:00
Orbit: 407 x 418 km, 51.6° (Epoch: 24 June)

Date Brightness Start Highest point End Pass type
(mag) Time Alt. Az. Time Alt. Az. Time Alt. Az.
24 Jun -2.8 04:38:50 25° W 04:39:49 31° NW 04:42:47 10° NNE visible
25 Jun -2.1 03:51:41 33° NNE 03:51:41 33° NNE 03:53:37 10° NE visible
27 Jun -0.8 03:49:59 11° N 03:49:59 11° N 03:50:12 10° N visible
